contact:dominique.lefevre@mio.osupytheas.fr, maurice.libes@osupytheas.fr, didier.mallarino@osupytheas.fr
Project:EMSO http://www.emso-fr.org/EMSO-France
Depth: 2436.0 m
Title:EMSO Ligure Ouest : Data MII capteur MICROCAT
DateTime_Computer,Latitude,Longitude,Temperature,Conductivity,Pressure,DateTime_Instrument
DateTime_Computer,Latitude,Longitude,degC,S m-1,dbar,DateTime_Instrument
2023-07-18T00:02:49Z,42.805,6.029,13.3033,4.60135,2470.717,2023-7-18T02:05:06Z
2023-07-18T00:05:52Z,42.805,6.029,13.3034,4.60114,2470.717,2023-7-18T02:08:09Z
2023-07-18T00:08:55Z,42.805,6.029,13.3034,4.60122,2470.74,2023-7-18T02:11:12Z
2023-07-18T00:11:59Z,42.805,6.029,13.3028,4.60104,2470.717,2023-7-18T02:14:15Z
2023-07-18T00:15:02Z,42.805,6.029,13.3032,4.60110,2470.707,2023-7-18T02:17:19Z
2023-07-18T00:18:05Z,42.805,6.029,13.3041,4.60117,2470.717,2023-7-18T02:20:22Z
2023-07-18T00:21:08Z,42.805,6.029,13.3029,4.60099,2470.73,2023-7-18T02:23:25Z
2023-07-18T00:24:11Z,42.805,6.029,13.3035,4.60111,2470.717,2023-7-18T02:26:28Z
2023-07-18T00:27:14Z,42.805,6.029,13.3029,4.60097,2470.707,2023-7-18T02:29:31Z
2023-07-18T00:30:17Z,42.805,6.029,13.3036,4.60107,2470.661,2023-7-18T02:32:34Z
2023-07-18T00:33:20Z,42.805,6.029,13.3041,4.60109,2470.717,2023-7-18T02:35:37Z
2023-07-18T00:36:23Z,42.805,6.029,13.3034,4.60140,2470.67,2023-7-18T02:38:40Z
2023-07-18T00:39:26Z,42.805,6.029,13.3037,4.60154,2470.73,2023-7-18T02:41:43Z
2023-07-18T00:42:29Z,42.805,6.029,13.3032,4.60125,2470.67,2023-7-18T02:44:46Z
2023-07-18T00:45:32Z,42.805,6.029,13.3034,4.60128,2470.693,2023-7-18T02:47:49Z
2023-07-18T00:48:36Z,42.805,6.029,13.3037,4.60110,2470.717,2023-7-18T02:50:52Z
2023-07-18T00:51:39Z,42.805,6.029,13.3033,4.60107,2470.684,2023-7-18T02:53:56Z
2023-07-18T00:54:42Z,42.805,6.029,13.3034,4.60139,2470.684,2023-7-18T02:56:59Z
2023-07-18T00:57:45Z,42.805,6.029,13.3031,4.60114,2470.717,2023-7-18T03:00:02Z
2023-07-18T01:00:48Z,42.805,6.029,13.3039,4.60114,2470.693,2023-7-18T03:03:05Z
2023-07-18T01:03:51Z,42.805,6.029,13.3026,4.60125,2470.67,2023-7-18T03:06:08Z
2023-07-18T01:06:54Z,42.805,6.029,13.3034,4.60122,2470.693,2023-7-18T03:09:11Z
2023-07-18T01:09:57Z,42.805,6.029,13.3029,4.60110,2470.67,2023-7-18T03:12:14Z
2023-07-18T01:13:00Z,42.805,6.029,13.3036,4.60113,2470.646,2023-7-18T03:15:17Z
2023-07-18T01:16:03Z,42.805,6.029,13.3027,4.60119,2470.67,2023-7-18T03:18:20Z
2023-07-18T01:19:06Z,42.805,6.029,13.3030,4.60115,2470.646,2023-7-18T03:21:23Z
2023-07-18T01:22:09Z,42.805,6.029,13.3031,4.60094,2470.693,2023-7-18T03:24:26Z
2023-07-18T01:25:13Z,42.805,6.029,13.3055,4.60126,2470.67,2023-7-18T03:27:29Z
2023-07-18T01:28:16Z,42.805,6.029,13.3035,4.60110,2470.646,2023-7-18T03:30:32Z
2023-07-18T01:31:19Z,42.805,6.029,13.3026,4.60132,2470.661,2023-7-18T03:33:36Z
2023-07-18T01:34:22Z,42.805,6.029,13.3036,4.60112,2470.646,2023-7-18T03:36:39Z
2023-07-18T01:37:25Z,42.805,6.029,13.3033,4.60117,2470.646,2023-7-18T03:39:42Z
2023-07-18T01:40:28Z,42.805,6.029,13.3041,4.60142,2470.646,2023-7-18T03:42:45Z
2023-07-18T01:43:31Z,42.805,6.029,13.3039,4.60142,2470.646,2023-7-18T03:45:48Z
2023-07-18T01:46:34Z,42.805,6.029,13.3036,4.60135,2470.646,2023-7-18T03:48:51Z
2023-07-18T01:49:37Z,42.805,6.029,13.3041,4.60122,2470.67,2023-7-18T03:51:54Z
2023-07-18T01:52:40Z,42.805,6.029,13.3043,4.60148,2470.67,2023-7-18T03:54:57Z
2023-07-18T01:55:43Z,42.805,6.029,13.3051,4.60132,2470.646,2023-7-18T03:58:00Z
2023-07-18T01:58:46Z,42.805,6.029,13.3034,4.60139,2470.637,2023-7-18T04:01:03Z
2023-07-18T02:01:50Z,42.805,6.029,13.3036,4.60127,2470.624,2023-7-18T04:04:06Z
2023-07-18T02:04:53Z,42.805,6.029,13.3035,4.60138,2470.624,2023-7-18T04:07:10Z
2023-07-18T02:07:56Z,42.805,6.029,13.3034,4.60113,2470.67,2023-7-18T04:10:13Z
2023-07-18T02:10:59Z,42.805,6.029,13.3040,4.60110,2470.637,2023-7-18T04:13:16Z
2023-07-18T02:14:02Z,42.805,6.029,13.3029,4.60108,2470.67,2023-7-18T04:16:19Z
2023-07-18T02:17:05Z,42.805,6.029,13.3036,4.60109,2470.637,2023-7-18T04:19:22Z
2023-07-18T02:20:08Z,42.805,6.029,13.3048,4.60114,2470.661,2023-7-18T04:22:25Z
2023-07-18T02:23:11Z,42.805,6.029,13.3036,4.60114,2470.624,2023-7-18T04:25:28Z
2023-07-18T02:26:14Z,42.805,6.029,13.3039,4.60126,2470.646,2023-7-18T04:28:31Z
2023-07-18T02:29:17Z,42.805,6.029,13.3035,4.60120,2470.624,2023-7-18T04:31:34Z
2023-07-18T02:32:20Z,42.805,6.029,13.3027,4.60119,2470.646,2023-7-18T04:34:37Z
2023-07-18T02:35:23Z,42.805,6.029,13.3033,4.60111,2470.646,2023-7-18T04:37:40Z
2023-07-18T02:38:26Z,42.805,6.029,13.3049,4.60125,2470.624,2023-7-18T04:40:43Z
2023-07-18T02:41:30Z,42.805,6.029,13.3030,4.60108,2470.637,2023-7-18T04:43:46Z
2023-07-18T02:44:33Z,42.805,6.029,13.3041,4.60119,2470.637,2023-7-18T04:46:50Z
2023-07-18T02:47:36Z,42.805,6.029,13.3039,4.60127,2470.624,2023-7-18T04:49:53Z
2023-07-18T02:50:39Z,42.805,6.029,13.3036,4.60114,2470.67,2023-7-18T04:52:56Z
2023-07-18T02:53:42Z,42.805,6.029,13.3031,4.60119,2470.624,2023-7-18T04:55:59Z
2023-07-18T02:56:45Z,42.805,6.029,13.3032,4.60123,2470.624,2023-7-18T04:59:02Z
2023-07-18T02:59:48Z,42.805,6.029,13.3027,4.60116,2470.646,2023-7-18T05:02:05Z
2023-07-18T03:02:51Z,42.805,6.029,13.3039,4.60109,2470.661,2023-7-18T05:05:08Z
2023-07-18T03:05:54Z,42.805,6.029,13.3029,4.60109,2470.624,2023-7-18T05:08:11Z
2023-07-18T03:08:57Z,42.805,6.029,13.3034,4.60117,2470.624,2023-7-18T05:11:14Z
2023-07-18T03:12:00Z,42.805,6.029,13.3034,4.60135,2470.624,2023-7-18T05:14:17Z
2023-07-18T03:15:03Z,42.805,6.029,13.3036,4.60113,2470.684,2023-7-18T05:17:20Z
2023-07-18T03:18:07Z,42.805,6.029,13.3031,4.60135,2470.637,2023-7-18T05:20:23Z
2023-07-18T03:21:10Z,42.805,6.029,13.3033,4.60116,2470.624,2023-7-18T05:23:27Z
2023-07-18T03:24:13Z,42.805,6.029,13.3036,4.60112,2470.646,2023-7-18T05:26:30Z
2023-07-18T03:27:16Z,42.805,6.029,13.3036,4.60143,2470.684,2023-7-18T05:29:33Z
2023-07-18T03:30:19Z,42.805,6.029,13.3036,4.60129,2470.637,2023-7-18T05:32:36Z
2023-07-18T03:33:22Z,42.805,6.029,13.3054,4.60129,2470.646,2023-7-18T05:35:39Z
2023-07-18T03:36:25Z,42.805,6.029,13.3046,4.60123,2470.661,2023-7-18T05:38:42Z
2023-07-18T03:39:28Z,42.805,6.029,13.3031,4.60120,2470.637,2023-7-18T05:41:45Z
2023-07-18T03:42:31Z,42.805,6.029,13.3031,4.60117,2470.624,2023-7-18T05:44:48Z
2023-07-18T03:45:34Z,42.805,6.029,13.3041,4.60117,2470.624,2023-7-18T05:47:51Z
2023-07-18T03:48:37Z,42.805,6.029,13.3040,4.60123,2470.646,2023-7-18T05:50:54Z
2023-07-18T03:51:40Z,42.805,6.029,13.3030,4.60122,2470.637,2023-7-18T05:53:57Z
2023-07-18T03:54:43Z,42.805,6.029,13.3030,4.60107,2470.637,2023-7-18T05:57:00Z
2023-07-18T03:57:47Z,42.805,6.029,13.3037,4.60125,2470.646,2023-7-18T06:00:03Z
2023-07-18T04:00:50Z,42.805,6.029,13.3036,4.60117,2470.646,2023-7-18T06:03:07Z
2023-07-18T04:03:53Z,42.805,6.029,13.3034,4.60111,2470.67,2023-7-18T06:06:10Z
2023-07-18T04:06:56Z,42.805,6.029,13.3032,4.60110,2470.684,2023-7-18T06:09:13Z
2023-07-18T04:09:59Z,42.805,6.029,13.3033,4.60112,2470.646,2023-7-18T06:12:16Z
2023-07-18T04:13:02Z,42.805,6.029,13.3042,4.60132,2470.661,2023-7-18T06:15:19Z
2023-07-18T04:16:05Z,42.805,6.029,13.3036,4.60123,2470.67,2023-7-18T06:18:22Z
2023-07-18T04:19:08Z,42.805,6.029,13.3040,4.60119,2470.646,2023-7-18T06:21:25Z
2023-07-18T04:22:11Z,42.805,6.029,13.3043,4.60122,2470.684,2023-7-18T06:24:28Z
2023-07-18T04:25:14Z,42.805,6.029,13.3039,4.60131,2470.67,2023-7-18T06:27:31Z
2023-07-18T04:28:17Z,42.805,6.029,13.3050,4.60122,2470.624,2023-7-18T06:30:34Z
2023-07-18T04:31:20Z,42.805,6.029,13.3037,4.60108,2470.646,2023-7-18T06:33:37Z
2023-07-18T04:34:24Z,42.805,6.029,13.3041,4.60109,2470.67,2023-7-18T06:36:40Z
2023-07-18T04:37:27Z,42.805,6.029,13.3041,4.60114,2470.646,2023-7-18T06:39:44Z
2023-07-18T04:40:30Z,42.805,6.029,13.3028,4.60122,2470.693,2023-7-18T06:42:47Z
2023-07-18T04:43:33Z,42.805,6.029,13.3037,4.60108,2470.67,2023-7-18T06:45:50Z
2023-07-18T04:46:36Z,42.805,6.029,13.3036,4.60106,2470.693,2023-7-18T06:48:53Z
2023-07-18T04:49:39Z,42.805,6.029,13.3031,4.60117,2470.646,2023-7-18T06:51:56Z
2023-07-18T04:52:42Z,42.805,6.029,13.3033,4.60115,2470.67,2023-7-18T06:54:59Z
2023-07-18T04:55:45Z,42.805,6.029,13.3041,4.60135,2470.67,2023-7-18T06:58:02Z
2023-07-18T04:58:48Z,42.805,6.029,13.3037,4.60145,2470.707,2023-7-18T07:01:05Z
2023-07-18T05:01:51Z,42.805,6.029,13.3043,4.60129,2470.693,2023-7-18T07:04:08Z
2023-07-18T05:04:54Z,42.805,6.029,13.3041,4.60130,2470.693,2023-7-18T07:07:11Z
2023-07-18T05:07:57Z,42.805,6.029,13.3036,4.60121,2470.693,2023-7-18T07:10:14Z
2023-07-18T05:11:01Z,42.805,6.029,13.3038,4.60129,2470.707,2023-7-18T07:13:17Z
2023-07-18T05:14:04Z,42.805,6.029,13.3037,4.60134,2470.693,2023-7-18T07:16:21Z
2023-07-18T05:17:07Z,42.805,6.029,13.3036,4.60127,2470.67,2023-7-18T07:19:24Z
2023-07-18T05:20:10Z,42.805,6.029,13.3039,4.60120,2470.693,2023-7-18T07:22:27Z
2023-07-18T05:23:13Z,42.805,6.029,13.3040,4.60112,2470.67,2023-7-18T07:25:30Z
2023-07-18T05:26:16Z,42.805,6.029,13.3039,4.60138,2470.717,2023-7-18T07:28:33Z
2023-07-18T05:29:19Z,42.805,6.029,13.3036,4.60132,2470.693,2023-7-18T07:31:36Z
2023-07-18T05:32:22Z,42.805,6.029,13.3039,4.60119,2470.717,2023-7-18T07:34:39Z
2023-07-18T05:35:25Z,42.805,6.029,13.3037,4.60131,2470.693,2023-7-18T07:37:42Z
2023-07-18T05:38:28Z,42.805,6.029,13.3036,4.60137,2470.693,2023-7-18T07:40:45Z
2023-07-18T05:41:31Z,42.805,6.029,13.3041,4.60123,2470.693,2023-7-18T07:43:48Z
2023-07-18T05:44:34Z,42.805,6.029,13.3040,4.60140,2470.717,2023-7-18T07:46:51Z
2023-07-18T05:47:38Z,42.805,6.029,13.3034,4.60135,2470.693,2023-7-18T07:49:54Z
2023-07-18T05:50:41Z,42.805,6.029,13.3034,4.60140,2470.74,2023-7-18T07:52:57Z
2023-07-18T05:53:44Z,42.805,6.029,13.3056,4.60144,2470.707,2023-7-18T07:56:01Z
2023-07-18T05:56:47Z,42.805,6.029,13.3043,4.60142,2470.684,2023-7-18T07:59:04Z
2023-07-18T05:59:50Z,42.805,6.029,13.3047,4.60135,2470.693,2023-7-18T08:02:07Z
2023-07-18T06:02:53Z,42.805,6.029,13.3042,4.60129,2470.754,2023-7-18T08:05:10Z
2023-07-18T06:05:56Z,42.805,6.029,13.3054,4.60146,2470.73,2023-7-18T08:08:13Z
2023-07-18T06:08:59Z,42.805,6.029,13.3058,4.60137,2470.693,2023-7-18T08:11:16Z
2023-07-18T06:12:02Z,42.805,6.029,13.3047,4.60142,2470.717,2023-7-18T08:14:19Z
2023-07-18T06:15:05Z,42.805,6.029,13.3043,4.60127,2470.754,2023-7-18T08:17:22Z
2023-07-18T06:18:08Z,42.805,6.029,13.3041,4.60139,2470.717,2023-7-18T08:20:25Z
2023-07-18T06:21:11Z,42.805,6.029,13.3035,4.60117,2470.74,2023-7-18T08:23:28Z
2023-07-18T06:24:14Z,42.805,6.029,13.3032,4.60127,2470.693,2023-7-18T08:26:31Z
2023-07-18T06:27:18Z,42.805,6.029,13.3041,4.60144,2470.717,2023-7-18T08:29:34Z
2023-07-18T06:30:20Z,42.805,6.029,13.3045,4.60138,2470.74,2023-7-18T08:32:37Z
2023-07-18T06:33:23Z,42.805,6.029,13.3061,4.60143,2470.73,2023-7-18T08:35:40Z
2023-07-18T06:36:26Z,42.805,6.029,13.3048,4.60152,2470.717,2023-7-18T08:38:43Z
2023-07-18T06:39:29Z,42.805,6.029,13.3044,4.60144,2470.73,2023-7-18T08:41:46Z
2023-07-18T06:42:32Z,42.805,6.029,13.3046,4.60140,2470.717,2023-7-18T08:44:49Z
2023-07-18T06:45:35Z,42.805,6.029,13.3043,4.60130,2470.763,2023-7-18T08:47:52Z
2023-07-18T06:48:38Z,42.805,6.029,13.3051,4.60137,2470.717,2023-7-18T08:50:55Z
2023-07-18T06:51:41Z,42.805,6.029,13.3040,4.60140,2470.74,2023-7-18T08:53:58Z
2023-07-18T06:54:44Z,42.805,6.029,13.3036,4.60132,2470.74,2023-7-18T08:57:01Z
2023-07-18T06:57:47Z,42.805,6.029,13.3029,4.60125,2470.74,2023-7-18T09:00:04Z
2023-07-18T07:00:51Z,42.805,6.029,13.3034,4.60118,2470.717,2023-7-18T09:03:07Z
2023-07-18T07:03:54Z,42.805,6.029,13.3035,4.60129,2470.73,2023-7-18T09:06:11Z
2023-07-18T07:06:57Z,42.805,6.029,13.3036,4.60132,2470.74,2023-7-18T09:09:14Z
2023-07-18T07:10:00Z,42.805,6.029,13.3039,4.60125,2470.74,2023-7-18T09:12:17Z
2023-07-18T07:13:03Z,42.805,6.029,13.3039,4.60114,2470.717,2023-7-18T09:15:20Z
2023-07-18T07:16:06Z,42.805,6.029,13.3036,4.60117,2470.717,2023-7-18T09:18:23Z
2023-07-18T07:19:09Z,42.805,6.029,13.3043,4.60129,2470.73,2023-7-18T09:21:26Z
2023-07-18T07:22:12Z,42.805,6.029,13.3030,4.60117,2470.707,2023-7-18T09:24:29Z
2023-07-18T07:25:15Z,42.805,6.029,13.3036,4.60137,2470.717,2023-7-18T09:27:32Z
2023-07-18T07:28:18Z,42.805,6.029,13.3031,4.60116,2470.74,2023-7-18T09:30:35Z
2023-07-18T07:31:21Z,42.805,6.029,13.3036,4.60104,2470.74,2023-7-18T09:33:38Z
2023-07-18T07:34:24Z,42.805,6.029,13.3038,4.60126,2470.754,2023-7-18T09:36:41Z
2023-07-18T07:37:28Z,42.805,6.029,13.3037,4.60119,2470.717,2023-7-18T09:39:44Z
2023-07-18T07:40:31Z,42.805,6.029,13.3038,4.60144,2470.717,2023-7-18T09:42:48Z
2023-07-18T07:43:34Z,42.805,6.029,13.3036,4.60131,2470.74,2023-7-18T09:45:51Z
2023-07-18T07:46:37Z,42.805,6.029,13.3035,4.60140,2470.74,2023-7-18T09:48:54Z
2023-07-18T07:49:40Z,42.805,6.029,13.3043,4.60133,2470.754,2023-7-18T09:51:57Z
2023-07-18T07:52:43Z,42.805,6.029,13.3033,4.60122,2470.717,2023-7-18T09:55:00Z
2023-07-18T07:55:46Z,42.805,6.029,13.3041,4.60111,2470.74,2023-7-18T09:58:03Z
2023-07-18T07:58:49Z,42.805,6.029,13.3031,4.60130,2470.717,2023-7-18T10:01:06Z
2023-07-18T08:01:52Z,42.805,6.029,13.3034,4.60116,2470.74,2023-7-18T10:04:09Z
2023-07-18T08:04:55Z,42.805,6.029,13.3032,4.60107,2470.73,2023-7-18T10:07:12Z
2023-07-18T08:07:58Z,42.805,6.029,13.3039,4.60122,2470.73,2023-7-18T10:10:15Z
2023-07-18T08:11:01Z,42.805,6.029,13.3036,4.60111,2470.717,2023-7-18T10:13:18Z
2023-07-18T08:14:04Z,42.805,6.029,13.3035,4.60104,2470.707,2023-7-18T10:16:21Z
2023-07-18T08:17:08Z,42.805,6.029,13.3035,4.60142,2470.73,2023-7-18T10:19:24Z
2023-07-18T08:20:11Z,42.805,6.029,13.3033,4.60111,2470.717,2023-7-18T10:22:28Z
2023-07-18T08:23:14Z,42.805,6.029,13.3042,4.60132,2470.717,2023-7-18T10:25:31Z
2023-07-18T08:26:17Z,42.805,6.029,13.3034,4.60121,2470.717,2023-7-18T10:28:34Z
2023-07-18T08:29:20Z,42.805,6.029,13.3058,4.60131,2470.717,2023-7-18T10:31:37Z
2023-07-18T08:32:23Z,42.805,6.029,13.3036,4.60121,2470.693,2023-7-18T10:34:40Z
2023-07-18T08:35:26Z,42.805,6.029,13.3037,4.60143,2470.717,2023-7-18T10:37:43Z
2023-07-18T08:38:29Z,42.805,6.029,13.3036,4.60122,2470.717,2023-7-18T10:40:46Z
2023-07-18T08:41:32Z,42.805,6.029,13.3041,4.60152,2470.717,2023-7-18T10:43:49Z
2023-07-18T08:44:35Z,42.805,6.029,13.3036,4.60137,2470.693,2023-7-18T10:46:52Z
2023-07-18T08:47:38Z,42.805,6.029,13.3044,4.60141,2470.707,2023-7-18T10:49:55Z
2023-07-18T08:50:41Z,42.805,6.029,13.3036,4.60126,2470.73,2023-7-18T10:52:58Z
2023-07-18T08:53:44Z,42.805,6.029,13.3035,4.60140,2470.73,2023-7-18T10:56:01Z
2023-07-18T08:56:47Z,42.805,6.029,13.3041,4.60126,2470.693,2023-7-18T10:59:04Z
2023-07-18T08:59:50Z,42.805,6.029,13.3048,4.60131,2470.717,2023-7-18T11:02:07Z
2023-07-18T09:02:54Z,42.805,6.029,13.3031,4.60127,2470.684,2023-7-18T11:05:10Z
2023-07-18T09:05:57Z,42.805,6.029,13.3041,4.60128,2470.693,2023-7-18T11:08:14Z
2023-07-18T09:09:00Z,42.805,6.029,13.3034,4.60127,2470.693,2023-7-18T11:11:17Z
2023-07-18T09:12:03Z,42.805,6.029,13.3035,4.60119,2470.67,2023-7-18T11:14:20Z
2023-07-18T09:15:06Z,42.805,6.029,13.3039,4.60121,2470.73,2023-7-18T11:17:23Z
2023-07-18T09:18:09Z,42.805,6.029,13.3040,4.60119,2470.67,2023-7-18T11:20:26Z
2023-07-18T09:21:12Z,42.805,6.029,13.3048,4.60124,2470.707,2023-7-18T11:23:29Z
2023-07-18T09:24:15Z,42.805,6.029,13.3035,4.60133,2470.693,2023-7-18T11:26:32Z
2023-07-18T09:27:18Z,42.805,6.029,13.3036,4.60130,2470.693,2023-7-18T11:29:35Z
2023-07-18T09:30:21Z,42.805,6.029,13.3031,4.60112,2470.67,2023-7-18T11:32:38Z
2023-07-18T09:33:24Z,42.805,6.029,13.3037,4.60125,2470.661,2023-7-18T11:35:41Z
2023-07-18T09:36:27Z,42.805,6.029,13.3031,4.60128,2470.707,2023-7-18T11:38:44Z
2023-07-18T09:39:31Z,42.805,6.029,13.3032,4.60116,2470.693,2023-7-18T11:41:48Z
2023-07-18T09:42:34Z,42.805,6.029,13.3031,4.60116,2470.717,2023-7-18T11:44:51Z
2023-07-18T09:45:37Z,42.805,6.029,13.3029,4.60119,2470.67,2023-7-18T11:47:54Z
2023-07-18T09:48:40Z,42.805,6.029,13.3037,4.60122,2470.67,2023-7-18T11:50:57Z
2023-07-18T09:51:43Z,42.805,6.029,13.3031,4.60129,2470.693,2023-7-18T11:54:00Z
2023-07-18T09:54:46Z,42.805,6.029,13.3039,4.60120,2470.67,2023-7-18T11:57:03Z
2023-07-18T09:57:49Z,42.805,6.029,13.3034,4.60132,2470.67,2023-7-18T12:00:06Z
2023-07-18T10:00:52Z,42.805,6.029,13.3038,4.60113,2470.67,2023-7-18T12:03:09Z
2023-07-18T10:03:55Z,42.805,6.029,13.3037,4.60125,2470.67,2023-7-18T12:06:12Z
2023-07-18T10:06:58Z,42.805,6.029,13.3033,4.60121,2470.684,2023-7-18T12:09:15Z
2023-07-18T10:10:01Z,42.805,6.029,13.3031,4.60125,2470.684,2023-7-18T12:12:18Z
2023-07-18T10:13:05Z,42.805,6.029,13.3036,4.60150,2470.646,2023-7-18T12:15:21Z
2023-07-18T10:16:08Z,42.805,6.029,13.3034,4.60140,2470.624,2023-7-18T12:18:25Z
2023-07-18T10:19:11Z,42.805,6.029,13.3042,4.60122,2470.646,2023-7-18T12:21:28Z
2023-07-18T10:22:14Z,42.805,6.029,13.3042,4.60130,2470.693,2023-7-18T12:24:31Z
2023-07-18T10:25:17Z,42.805,6.029,13.3032,4.60107,2470.646,2023-7-18T12:27:34Z
2023-07-18T10:28:20Z,42.805,6.029,13.3038,4.60122,2470.684,2023-7-18T12:30:37Z
2023-07-18T10:31:21Z,42.805,6.029,13.3034,4.60113,2470.646,2023-7-18T12:33:38Z
2023-07-18T10:34:24Z,42.805,6.029,13.3037,4.60140,2470.707,2023-7-18T12:36:41Z
2023-07-18T10:37:28Z,42.805,6.029,13.3042,4.60132,2470.646,2023-7-18T12:39:44Z
2023-07-18T10:40:31Z,42.805,6.029,13.3039,4.60129,2470.661,2023-7-18T12:42:48Z
2023-07-18T10:43:34Z,42.805,6.029,13.3034,4.60123,2470.646,2023-7-18T12:45:51Z
2023-07-18T10:46:37Z,42.805,6.029,13.3041,4.60144,2470.624,2023-7-18T12:48:54Z
2023-07-18T10:49:40Z,42.805,6.029,13.3034,4.60108,2470.646,2023-7-18T12:51:57Z
2023-07-18T10:52:43Z,42.805,6.029,13.3046,4.60124,2470.646,2023-7-18T12:55:00Z
2023-07-18T10:55:46Z,42.805,6.029,13.3040,4.60151,2470.646,2023-7-18T12:58:03Z
2023-07-18T10:58:49Z,42.805,6.029,13.3052,4.60121,2470.637,2023-7-18T13:01:06Z
2023-07-18T11:01:52Z,42.805,6.029,13.3038,4.60120,2470.646,2023-7-18T13:04:09Z
2023-07-18T11:04:55Z,42.805,6.029,13.3037,4.60129,2470.661,2023-7-18T13:07:12Z
2023-07-18T11:07:58Z,42.805,6.029,13.3035,4.60123,2470.637,2023-7-18T13:10:15Z
2023-07-18T11:11:01Z,42.805,6.029,13.3041,4.60151,2470.646,2023-7-18T13:13:18Z
2023-07-18T11:14:05Z,42.805,6.029,13.3035,4.60127,2470.646,2023-7-18T13:16:21Z
2023-07-18T11:17:08Z,42.805,6.029,13.3037,4.60146,2470.646,2023-7-18T13:19:25Z
2023-07-18T11:20:11Z,42.805,6.029,13.3039,4.60137,2470.646,2023-7-18T13:22:28Z
2023-07-18T11:23:14Z,42.805,6.029,13.3035,4.60137,2470.637,2023-7-18T13:25:31Z
2023-07-18T11:26:17Z,42.805,6.029,13.3039,4.60121,2470.6,2023-7-18T13:28:34Z
2023-07-18T11:29:20Z,42.805,6.029,13.3033,4.60106,2470.6,2023-7-18T13:31:37Z
2023-07-18T11:32:23Z,42.805,6.029,13.3038,4.60124,2470.6,2023-7-18T13:34:40Z
2023-07-18T11:35:26Z,42.805,6.029,13.3035,4.60117,2470.614,2023-7-18T13:37:43Z
2023-07-18T11:38:29Z,42.805,6.029,13.3035,4.60114,2470.637,2023-7-18T13:40:46Z
2023-07-18T11:41:32Z,42.805,6.029,13.3032,4.60116,2470.6,2023-7-18T13:43:49Z
2023-07-18T11:44:35Z,42.805,6.029,13.3031,4.60115,2470.567,2023-7-18T13:46:52Z
2023-07-18T11:47:38Z,42.805,6.029,13.3037,4.60122,2470.6,2023-7-18T13:49:55Z
2023-07-18T11:50:42Z,42.805,6.029,13.3046,4.60137,2470.6,2023-7-18T13:52:59Z
2023-07-18T11:53:45Z,42.805,6.029,13.3041,4.60132,2470.6,2023-7-18T13:56:02Z
2023-07-18T11:56:48Z,42.805,6.029,13.3040,4.60125,2470.6,2023-7-18T13:59:05Z
2023-07-18T11:59:51Z,42.805,6.029,13.3035,4.60125,2470.614,2023-7-18T14:02:08Z
2023-07-18T12:02:54Z,42.805,6.029,13.3034,4.60137,2470.577,2023-7-18T14:05:11Z
2023-07-18T12:05:57Z,42.805,6.029,13.3036,4.60121,2470.6,2023-7-18T14:08:14Z
2023-07-18T12:09:00Z,42.805,6.029,13.3037,4.60119,2470.637,2023-7-18T14:11:17Z
2023-07-18T12:12:03Z,42.805,6.029,13.3030,4.60110,2470.591,2023-7-18T14:14:20Z
2023-07-18T12:15:06Z,42.805,6.029,13.3048,4.60130,2470.577,2023-7-18T14:17:23Z
2023-07-18T12:18:09Z,42.805,6.029,13.3044,4.60135,2470.6,2023-7-18T14:20:26Z
2023-07-18T12:21:12Z,42.805,6.029,13.3031,4.60120,2470.577,2023-7-18T14:23:29Z
2023-07-18T12:24:15Z,42.805,6.029,13.3037,4.60120,2470.6,2023-7-18T14:26:32Z
2023-07-18T12:27:19Z,42.805,6.029,13.3036,4.60140,2470.577,2023-7-18T14:29:36Z
2023-07-18T12:30:22Z,42.805,6.029,13.3043,4.60127,2470.591,2023-7-18T14:32:39Z
2023-07-18T12:33:25Z,42.805,6.029,13.3043,4.60141,2470.6,2023-7-18T14:35:42Z
2023-07-18T12:36:28Z,42.805,6.029,13.3046,4.60127,2470.591,2023-7-18T14:38:45Z
2023-07-18T12:39:31Z,42.805,6.029,13.3046,4.60147,2470.6,2023-7-18T14:41:48Z
2023-07-18T12:42:34Z,42.805,6.029,13.3046,4.60146,2470.591,2023-7-18T14:44:51Z
2023-07-18T12:45:37Z,42.805,6.029,13.3051,4.60135,2470.591,2023-7-18T14:47:54Z
2023-07-18T12:48:40Z,42.805,6.029,13.3039,4.60132,2470.577,2023-7-18T14:50:57Z
2023-07-18T12:51:43Z,42.805,6.029,13.3033,4.60107,2470.6,2023-7-18T14:54:00Z
2023-07-18T12:54:46Z,42.805,6.029,13.3040,4.60116,2470.577,2023-7-18T14:57:03Z
2023-07-18T12:57:49Z,42.805,6.029,13.3036,4.60137,2470.567,2023-7-18T15:00:06Z
2023-07-18T13:00:53Z,42.805,6.029,13.3032,4.60123,2470.614,2023-7-18T15:03:09Z
2023-07-18T13:03:56Z,42.805,6.029,13.3039,4.60130,2470.577,2023-7-18T15:06:13Z
2023-07-18T13:06:59Z,42.805,6.029,13.3037,4.60127,2470.6,2023-7-18T15:09:16Z
2023-07-18T13:10:02Z,42.805,6.029,13.3046,4.60129,2470.577,2023-7-18T15:12:19Z
2023-07-18T13:13:05Z,42.805,6.029,13.3036,4.60121,2470.577,2023-7-18T15:15:22Z
2023-07-18T13:16:08Z,42.805,6.029,13.3038,4.60147,2470.553,2023-7-18T15:18:25Z
2023-07-18T13:19:11Z,42.805,6.029,13.3037,4.60139,2470.567,2023-7-18T15:21:28Z
2023-07-18T13:22:14Z,42.805,6.029,13.3040,4.60132,2470.6,2023-7-18T15:24:31Z
2023-07-18T13:25:17Z,42.805,6.029,13.3046,4.60134,2470.577,2023-7-18T15:27:34Z
2023-07-18T13:28:20Z,42.805,6.029,13.3046,4.60140,2470.591,2023-7-18T15:30:37Z
2023-07-18T13:31:23Z,42.805,6.029,13.3048,4.60137,2470.577,2023-7-18T15:33:40Z
2023-07-18T13:34:26Z,42.805,6.029,13.3039,4.60160,2470.624,2023-7-18T15:36:43Z
2023-07-18T13:37:30Z,42.805,6.029,13.3048,4.60144,2470.614,2023-7-18T15:39:46Z
2023-07-18T13:40:33Z,42.805,6.029,13.3040,4.60128,2470.567,2023-7-18T15:42:50Z
2023-07-18T13:43:36Z,42.805,6.029,13.3056,4.60135,2470.553,2023-7-18T15:45:53Z
2023-07-18T13:46:39Z,42.805,6.029,13.3050,4.60132,2470.553,2023-7-18T15:48:56Z
2023-07-18T13:49:42Z,42.805,6.029,13.3046,4.60134,2470.577,2023-7-18T15:51:59Z
2023-07-18T13:52:45Z,42.805,6.029,13.3047,4.60131,2470.577,2023-7-18T15:55:02Z
2023-07-18T13:55:48Z,42.805,6.029,13.3044,4.60125,2470.577,2023-7-18T15:58:05Z
2023-07-18T13:58:51Z,42.805,6.029,13.3041,4.60127,2470.53,2023-7-18T16:01:08Z
2023-07-18T14:01:54Z,42.805,6.029,13.3054,4.60131,2470.553,2023-7-18T16:04:11Z
2023-07-18T14:04:57Z,42.805,6.029,13.3048,4.60141,2470.591,2023-7-18T16:07:14Z
2023-07-18T14:08:00Z,42.805,6.029,13.3045,4.60131,2470.624,2023-7-18T16:10:17Z
2023-07-18T14:11:03Z,42.805,6.029,13.3039,4.60133,2470.553,2023-7-18T16:13:20Z
2023-07-18T14:14:07Z,42.805,6.029,13.3052,4.60125,2470.567,2023-7-18T16:16:24Z
2023-07-18T14:17:10Z,42.805,6.029,13.3048,4.60157,2470.553,2023-7-18T16:19:27Z
2023-07-18T14:20:13Z,42.805,6.029,13.3036,4.60132,2470.553,2023-7-18T16:22:30Z
2023-07-18T14:23:16Z,42.805,6.029,13.3039,4.60139,2470.624,2023-7-18T16:25:33Z
2023-07-18T14:26:19Z,42.805,6.029,13.3031,4.60130,2470.591,2023-7-18T16:28:36Z
2023-07-18T14:29:22Z,42.805,6.029,13.3045,4.60138,2470.577,2023-7-18T16:31:39Z
2023-07-18T14:32:24Z,42.805,6.029,13.3037,4.60131,2470.53,2023-7-18T16:34:41Z
2023-07-18T14:35:27Z,42.805,6.029,13.3032,4.60125,2470.6,2023-7-18T16:37:44Z
2023-07-18T14:38:30Z,42.805,6.029,13.3034,4.60119,2470.577,2023-7-18T16:40:47Z
2023-07-18T14:41:33Z,42.805,6.029,13.3048,4.60162,2470.553,2023-7-18T16:43:50Z
2023-07-18T14:44:36Z,42.805,6.029,13.3034,4.60124,2470.553,2023-7-18T16:46:53Z
2023-07-18T14:47:39Z,42.805,6.029,13.3034,4.60137,2470.567,2023-7-18T16:49:56Z
2023-07-18T14:50:43Z,42.805,6.029,13.3039,4.60134,2470.53,2023-7-18T16:52:59Z
2023-07-18T14:53:46Z,42.805,6.029,13.3033,4.60117,2470.553,2023-7-18T16:56:03Z
2023-07-18T14:56:49Z,42.805,6.029,13.3037,4.60126,2470.553,2023-7-18T16:59:06Z
2023-07-18T14:59:52Z,42.805,6.029,13.3046,4.60141,2470.577,2023-7-18T17:02:09Z
2023-07-18T15:02:55Z,42.805,6.029,13.3034,4.60134,2470.614,2023-7-18T17:05:12Z
2023-07-18T15:05:58Z,42.805,6.029,13.3048,4.60132,2470.591,2023-7-18T17:08:15Z
2023-07-18T15:09:01Z,42.805,6.029,13.3032,4.60127,2470.577,2023-7-18T17:11:18Z
2023-07-18T15:12:04Z,42.805,6.029,13.3034,4.60119,2470.591,2023-7-18T17:14:21Z
2023-07-18T15:15:07Z,42.805,6.029,13.3041,4.60140,2470.553,2023-7-18T17:17:24Z